GW0795 Weather Reports


Display with metric or nautical units.
time (UTC)temp
F
wind
direction
speed
MPH
gust
MPH
rain 1hr
in
rain 24hr
in
rain mn
in
humidity
%
barometer
mb
20260503195505 76 46 3.0 7.0 0.00 0.00 0.00 46 1012.8
20260503195007 76 325 2.0 7.0 0.00 0.00 0.00 47 1012.8
20260503194517 75 28 4.0 7.0 0.00 0.00 0.00 46 1012.8
20260503194007 74 306 4.0 8.0 0.00 0.00 0.00 46 1013.0
20260503193508 74 266 3.0 8.0 0.00 0.00 0.00 47 1013.1
20260503193021 74 302 3.0 6.0 0.00 0.00 0.00 46 1013.1
20260503192506 74 339 3.0 9.0 0.00 0.00 0.00 47 1013.1
20260503192007 74 17 4.0 9.0 0.00 0.00 0.00 47 1013.2
20260503191521 74 266 2.0 8.0 0.00 0.00 0.00 49 1013.2
20260503191007 74 9 2.0 7.0 0.00 0.00 0.00 48 1013.3
20260503190504 74 360 3.0 7.0 0.00 0.00 0.00 48 1013.4
20260503190007 75 245 1.0 8.0 0.00 0.00 0.00 47 1013.5
20260503185503 74 288 2.0 8.0 0.00 0.00 0.00 50 1013.5
20260503185004 74 9 1.0 8.0 0.00 0.00 0.00 48 1013.5
20260503184514 74 29 4.0 8.0 0.00 0.00 0.00 47 1013.6
20260503184004 73 279 1.0 8.0 0.00 0.00 0.00 50 1013.7
20260503183507 73 5 3.0 9.0 0.00 0.00 0.00 48 1013.8
20260503183034 73 9 3.0 10.0 0.00 0.00 0.00 50 1013.8
20260503182507 72 5 3.0 10.0 0.00 0.00 0.00 49 1013.8
20260503182011 72 16 3.0 9.0 0.00 0.00 0.00 50 1013.8
20260503181524 72 81 4.0 9.0 0.00 0.00 0.00 50 1013.9
20260503181007 72 46 2.0 6.0 0.00 0.00 0.00 52 1013.9
20260503180508 71 32 3.0 7.0 0.00 0.00 0.00 53 1013.9
20260503180024 72 63 3.0 10.0 0.00 0.00 0.00 53 1013.8
20260503175506 72 28 2.0 10.0 0.00 0.00 0.00 52 1013.9
20260503175004 71 5 3.0 9.0 0.00 0.00 0.00 54 1013.9
20260503174513 71 30 3.0 9.0 0.00 0.00 0.00 52 1013.9
20260503174008 70 303 3.0 9.0 0.00 0.00 0.00 53 1013.9
20260503173510 70 53 2.0 6.0 0.00 0.00 0.00 53 1014.0
20260503173018 70 336 3.0 5.0 0.00 0.00 0.00 53 1014.0
20260503172506 70 55 2.0 5.0 0.00 0.00 0.00 54 1014.1
20260503172007 70 38 2.0 6.0 0.00 0.00 0.00 54 1014.1
20260503171520 69 69 3.0 6.0 0.00 0.00 0.00 53 1014.1
20260503171006 69 348 3.0 6.0 0.00 0.00 0.00 54 1014.1
20260503170511 69 21 2.0 8.0 0.00 0.00 0.00 54 1014.1
20260503151004 63 30 3.0 6.0 0.00 0.00 0.00 61 1014.2
20260503150503 63 352 2.0 5.0 0.00 0.00 0.00 62 1014.2
20260503131010 53 5 0.0 0.0 0.00 0.00 0.00 79 1014.2
20260503130506 53 5 0.0 0.0 0.00 0.00 0.00 79 1014.1
20260503110504 55 5 0.0 0.0 0.00 0.00 0.00 74 1014.2
20260503090510 56 53 0.0 0.0 0.00 0.00 0.00 69 1014.5
20260503081532 61 9 0.0 2.0 0.00 0.00 0.00 58 1014.6
20260503081010 61 9 0.0 2.0 0.00 0.00 0.00 56 1014.5
20260503080509 62 9 0.0 2.0 0.00 0.00 0.00 54 1014.5
20260503072507 63 51 1.0 3.0 0.00 0.00 0.00 52 1014.5
20260503072003 63 60 0.0 2.0 0.00 0.00 0.00 52 1014.5
20260503071507 63 27 1.0 2.0 0.00 0.00 0.00 51 1014.4
20260503071004 63 28 0.0 2.0 0.00 0.00 0.00 51 1014.4
20260503070505 64 331 0.0 2.0 0.00 0.00 0.00 51 1014.4
20260503055003 64 19 0.0 4.0 0.00 0.00 0.00 51 1014.3
20260503054513 64 9 2.0 4.0 0.00 0.00 0.00 51 1014.3
20260503054009 64 9 0.0 4.0 0.00 0.00 0.00 53 1014.2
20260503053506 64 19 1.0 3.0 0.00 0.00 0.00 54 1014.2
20260503053015 64 351 0.0 2.0 0.00 0.00 0.00 56 1014.3
20260503052506 64 352 0.0 2.0 0.00 0.00 0.00 56 1014.3
20260503052010 64 339 1.0 2.0 0.00 0.00 0.00 56 1014.2
20260503051519 64 350 0.0 2.0 0.00 0.00 0.00 58 1014.2
20260503051009 63 5 0.0 2.0 0.00 0.00 0.00 57 1014.3
20260503050507 63 9 0.0 0.0 0.00 0.00 0.00 58 1014.3
20260503050033 64 9 0.0 1.0 0.00 0.00 0.00 58 1014.3
20260503045507 64 9 0.0 1.0 0.00 0.00 0.00 57 1014.3
20260503045005 64 5 0.0 2.0 0.00 0.00 0.00 57 1014.3
20260503044506 64 5 0.0 2.0 0.00 0.00 0.00 58 1014.3
20260503044004 64 5 0.0 2.0 0.00 0.00 0.00 57 1014.3
20260503043504 65 5 0.0 2.0 0.00 0.00 0.00 58 1014.2
20260503043017 65 5 0.0 2.0 0.00 0.00 0.00 58 1014.1
20260503042506 65 15 0.0 2.0 0.00 0.00 0.00 58 1014.0
20260503042006 65 50 0.0 2.0 0.00 0.00 0.00 58 1014.0
20260503041516 65 23 0.0 2.0 0.00 0.00 0.00 58 1014.0
20260503041005 65 23 0.0 2.0 0.00 0.00 0.00 58 1013.9
20260503040511 65 350 1.0 2.0 0.00 0.00 0.00 58 1013.9
20260503040029 66 351 0.0 2.0 0.00 0.00 0.00 57 1013.9
20260503035510 66 346 1.0 2.0 0.00 0.00 0.00 56 1013.8
20260503035009 66 336 0.0 2.0 0.00 0.00 0.00 56 1013.7
20260503034534 66 19 0.0 2.0 0.00 0.00 0.00 57 1013.6
20260503034008 66 20 0.0 2.0 0.00 0.00 0.00 55 1013.5
20260503033507 67 36 0.0 3.0 0.00 0.00 0.00 56 1013.5
20260503033008 67 36 1.0 4.0 0.00 0.00 0.00 55 1013.4
20260503032505 67 14 1.0 4.0 0.00 0.00 0.00 54 1013.3
20260503032006 68 9 1.0 5.0 0.00 0.00 0.00 53 1013.4
20260503031512 68 22 2.0 5.0 0.00 0.00 0.00 53 1013.3
20260503031013 68 15 2.0 4.0 0.00 0.00 0.00 54 1013.3
20260503030506 68 19 2.0 4.0 0.00 0.00 0.00 54 1013.2
20260503030016 69 100 1.0 5.0 0.00 0.00 0.00 54 1013.2
20260503025506 69 26 1.0 5.0 0.00 0.00 0.00 53 1013.1
20260503025012 69 22 3.0 8.0 0.00 0.00 0.00 52 1013.1
20260503024523 70 10 2.0 8.0 0.00 0.00 0.00 52 1013.0
20260503024009 70 49 2.0 9.0 0.00 0.00 0.00 52 1012.9
20260503023511 70 338 3.0 9.0 0.00 0.00 0.00 51 1012.9
20260503023026 70 341 4.0 8.0 0.00 0.00 0.00 51 1012.8
20260503022509 70 13 1.0 7.0 0.00 0.00 0.00 51 1012.9
20260503022005 70 321 1.0 7.0 0.00 0.00 0.00 51 1012.9
20260503021509 71 325 2.0 8.0 0.00 0.00 0.00 50 1012.8
20260503021005 71 346 1.0 8.0 0.00 0.00 0.00 50 1012.8
20260503020505 71 38 3.0 7.0 0.00 0.00 0.00 49 1012.9
20260503020016 72 5 3.0 9.0 0.00 0.00 0.00 49 1012.9
20260503015508 72 346 1.0 9.0 0.00 0.00 0.00 49 1012.9
20260503015009 72 39 2.0 9.0 0.00 0.00 0.00 50 1012.9
20260503014536 72 26 4.0 9.0 0.00 0.00 0.00 49 1012.9
20260503014008 72 333 4.0 8.0 0.00 0.00 0.00 49 1012.9
20260503013513 73 38 3.0 8.0 0.00 0.00 0.00 48 1013.0
20260503013026 73 312 1.0 9.0 0.00 0.00 0.00 48 1013.0
20260503012509 73 27 5.0 9.0 0.00 0.00 0.00 47 1013.1
20260503012009 73 5 2.0 6.0 0.00 0.00 0.00 48 1013.1
20260503011528 73 37 3.0 7.0 0.00 0.00 0.00 47 1013.1
20260503011008 73 34 3.0 9.0 0.00 0.00 0.00 47 1013.1
20260503010507 73 329 4.0 9.0 0.00 0.00 0.00 46 1013.1
20260503010014 73 42 3.0 10.0 0.00 0.00 0.00 45 1013.0
20260503005506 73 36 3.0 10.0 0.00 0.00 0.00 46 1013.1
20260503005006 73 21 4.0 12.0 0.00 0.00 0.00 46 1013.2
20260503004517 73 350 4.0 12.0 0.00 0.00 0.00 47 1013.2
20260503004007 73 9 7.0 11.0 0.00 0.00 0.00 45 1013.2
20260503003506 73 16 4.0 9.0 0.00 0.00 0.00 46 1013.2
20260503003021 73 352 2.0 9.0 0.00 0.00 0.00 46 1013.1
20260503002510 73 327 4.0 9.0 0.00 0.00 0.00 47 1013.2
20260503002014 73 352 4.0 9.0 0.00 0.00 0.00 46 1013.2
20260503001508 73 320 4.0 10.0 0.00 0.00 0.00 46 1013.2
20260503001008 73 9 3.0 10.0 0.00 0.00 0.00 47 1013.2
20260503000509 73 22 5.0 9.0 0.00 0.00 0.00 46 1013.3
20260503000015 73 53 4.0 8.0 0.00 0.00 0.00 47 1013.4
20260502235504 73 336 1.0 12.0 0.00 0.00 0.00 48 1013.4
20260502235004 72 23 5.0 12.0 0.00 0.00 0.00 48 1013.5
20260502234516 73 294 5.0 10.0 0.00 0.00 0.00 47 1013.5
20260502234009 73 24 2.0 10.0 0.00 0.00 0.00 47 1013.6
20260502233502 72 44 4.0 10.0 0.00 0.00 0.00 46 1013.7
20260502233002 72 5 2.0 9.0 0.00 0.00 0.00 47 1013.8
20260502232503 72 336 4.0 14.0 0.00 0.00 0.00 47 1013.8
20260502232001 72 308 5.0 14.0 0.00 0.00 0.00 45 1013.9
20260502231506 73 30 4.0 12.0 0.00 0.00 0.00 45 1014.0
20260502231006 73 345 4.0 12.0 0.00 0.00 0.00 45 1014.0
20260502230509 73 34 6.0 12.0 0.00 0.00 0.00 44 1014.1
20260502230011 73 17 6.0 13.0 0.00 0.00 0.00 45 1014.1
20260502225505 73 28 3.0 13.0 0.00 0.00 0.00 43 1014.2
20260502225007 73 352 3.0 12.0 0.00 0.00 0.00 44 1014.3
20260502224517 73 13 3.0 12.0 0.00 0.00 0.00 47 1014.4
20260502224004 72 335 3.0 9.0 0.00 0.00 0.00 46 1014.4
20260502223508 72 29 4.0 8.0 0.00 0.00 0.00 49 1014.5
20260502223020 72 57 4.0 10.0 0.00 0.00 0.00 50 1014.5
20260502222508 72 13 5.0 11.0 0.00 0.00 0.00 50 1014.6
20260502222002 72 18 6.0 11.0 0.00 0.00 0.00 51 1014.6
20260502221506 73 15 3.0 8.0 0.00 0.00 0.00 51 1014.6
20260502221002 73 296 2.0 8.0 0.00 0.00 0.00 51 1014.7
20260502220506 72 352 3.0 8.0 0.00 0.00 0.00 54 1014.7
20260502220007 72 73 3.0 7.0 0.00 0.00 0.00 54 1014.7
20260502215505 72 339 2.0 8.0 0.00 0.00 0.00 53 1014.7
20260502215006 71 34 2.0 10.0 0.00 0.00 0.00 56 1014.7
20260502214513 71 65 4.0 10.0 0.00 0.00 0.00 54 1014.8
20260502214008 70 14 2.0 10.0 0.00 0.00 0.00 57 1014.8
20260502213511 70 294 4.0 11.0 0.00 0.00 0.00 56 1015.0
20260502213019 71 33 5.0 11.0 0.00 0.00 0.00 55 1015.1
20260502212508 70 41 3.0 9.0 0.00 0.00 0.00 54 1015.1
20260502212007 71 24 1.0 10.0 0.00 0.00 0.00 58 1015.2
20260502211532 70 78 2.0 11.0 0.00 0.00 0.00 57 1015.3
20260502211012 70 17 5.0 11.0 0.00 0.00 0.00 57 1015.3
20260502210504 70 55 3.0 6.0 0.00 0.00 0.00 56 1015.3
20260502210008 71 19 4.0 11.0 0.00 0.00 0.00 56 1015.3
20260502205506 71 42 5.0 11.0 0.00 0.00 0.00 57 1015.3
20260502205004 70 269 4.0 9.0 0.00 0.00 0.00 58 1015.4
20260502204510 69 26 4.0 11.0 0.00 0.00 0.00 57 1015.5
20260502204005 69 360 5.0 11.0 0.00 0.00 0.00 58 1015.5
20260502203506 69 360 5.0 11.0 0.00 0.00 0.00 57 1015.4
20260502203018 69 36 5.0 11.0 0.00 0.00 0.00 58 1015.6
20260502202507 69 31 3.0 9.0 0.00 0.00 0.00 57 1015.6
20260502202007 69 352 3.0 9.0 0.00 0.00 0.00 57 1015.7
20260502201519 69 86 3.0 9.0 0.00 0.00 0.00 58 1015.7
20260502201010 69 341 4.0 9.0 0.00 0.00 0.00 59 1015.8
20260502200510 68 323 2.0 7.0 0.00 0.00 0.00 63 1015.7
20260502200025 67 352 2.0 7.0 0.00 0.00 0.00 61 1015.7